Time,TemperatureF,DewpointF,PressureIn,WindDirection,WindDirectionDegrees,WindSpeedMPH,WindSpeedGustMPH,Humidity,HourlyPrecipIn,Conditions,Clouds,dailyrainin,SoftwareType,DateUTC
2017-12-11 00:00:00,30.1,54.0,30.28,SE,135,2.3,4.0,255,0.00,,,0.00,Rainwise IP-100,2017-12-11 08:00:00,
2017-12-11 00:05:00,30.0,54.0,30.28,SSE,157,2.3,3.0,255,0.00,,,0.00,Rainwise IP-100,2017-12-11 08:05:00,
2017-12-11 00:10:00,29.7,54.0,30.28,SE,135,1.6,3.0,255,0.00,,,0.00,Rainwise IP-100,2017-12-11 08:10:00,
2017-12-11 00:15:00,29.5,54.0,30.28,SSW,202,0.0,2.0,255,0.00,,,0.00,Rainwise IP-100,2017-12-11 08:15:00,
2017-12-11 00:20:00,29.3,53.0,30.27,SSE,157,0.0,3.0,255,0.00,,,0.00,Rainwise IP-100,2017-12-11 08:20:00,
2017-12-11 00:25:00,29.2,53.0,30.27,ESE,112,1.2,3.0,255,0.00,,,0.00,Rainwise IP-100,2017-12-11 08:25:00,
2017-12-11 00:30:00,29.2,53.0,30.27,South,180,1.6,3.0,255,0.00,,,0.00,Rainwise IP-100,2017-12-11 08:30:00,
2017-12-11 00:35:00,29.1,53.0,30.27,East,90,4.9,4.9,255,0.00,,,0.00,Rainwise IP-100,2017-12-11 08:35:00,
2017-12-11 00:40:00,29.0,53.0,30.27,South,180,0.0,4.0,255,0.00,,,0.00,Rainwise IP-100,2017-12-11 08:40:00,
2017-12-11 00:45:00,28.8,53.0,30.27,East,90,0.0,2.0,255,0.00,,,0.00,Rainwise IP-100,2017-12-11 08:45:00,
2017-12-11 00:51:00,28.8,53.0,30.27,East,90,0.0,2.0,255,0.00,,,0.00,Rainwise IP-100,2017-12-11 08:51:00,
2017-12-11 01:01:00,28.8,53.0,30.27,ESE,112,0.0,2.0,255,0.00,,,0.00,Rainwise IP-100,2017-12-11 09:01:00,
2017-12-11 01:06:00,28.7,53.0,30.27,South,180,2.3,4.0,255,0.00,,,0.00,Rainwise IP-100,2017-12-11 09:06:00,
2017-12-11 01:11:00,28.5,53.0,30.27,ESE,112,0.0,3.0,255,0.00,,,0.00,Rainwise IP-100,2017-12-11 09:11:00,
2017-12-11 01:21:00,28.6,53.0,30.27,SSE,157,0.0,4.0,255,0.00,,,0.00,Rainwise IP-100,2017-12-11 09:21:00,
2017-12-11 01:26:00,28.6,53.0,30.28,ESE,112,0.0,3.0,255,0.00,,,0.00,Rainwise IP-100,2017-12-11 09:26:00,
2017-12-11 01:36:00,28.6,53.0,30.28,SE,135,3.0,3.0,255,0.00,,,0.00,Rainwise IP-100,2017-12-11 09:36:00,
2017-12-11 01:41:00,28.7,53.0,30.28,SSW,202,1.6,3.0,255,0.00,,,0.00,Rainwise IP-100,2017-12-11 09:41:00,
2017-12-11 01:51:00,29.2,53.0,30.29,WSW,247,1.6,2.0,255,0.00,,,0.00,Rainwise IP-100,2017-12-11 09:51:00,
2017-12-11 01:56:00,29.6,54.0,30.29,ESE,112,0.0,2.0,255,0.00,,,0.00,Rainwise IP-100,2017-12-11 09:56:00,
2017-12-11 02:01:00,29.3,53.0,30.29,SSE,157,2.8,3.0,255,0.00,,,0.00,Rainwise IP-100,2017-12-11 10:01:00,
2017-12-11 02:06:00,28.8,53.0,30.30,SE,135,1.9,2.0,255,0.00,,,0.00,Rainwise IP-100,2017-12-11 10:06:00,
2017-12-11 02:11:00,28.7,53.0,30.29,SE,135,2.6,2.6,255,0.00,,,0.00,Rainwise IP-100,2017-12-11 10:11:00,
2017-12-11 02:16:00,28.8,53.0,30.30,SSW,202,0.0,4.0,255,0.00,,,0.00,Rainwise IP-100,2017-12-11 10:16:00,
2017-12-11 02:21:00,28.8,53.0,30.31,ESE,112,1.9,4.0,255,0.00,,,0.00,Rainwise IP-100,2017-12-11 10:21:00,
2017-12-11 02:26:00,28.6,53.0,30.30,NW,315,0.0,2.0,255,0.00,,,0.00,Rainwise IP-100,2017-12-11 10:26:00,
2017-12-11 02:31:00,28.8,53.0,30.31,East,90,7.2,7.2,255,0.00,,,0.00,Rainwise IP-100,2017-12-11 10:31:00,
2017-12-11 02:36:00,29.6,54.0,30.30,NNW,337,0.0,8.0,255,0.00,,,0.00,Rainwise IP-100,2017-12-11 10:36:00,
2017-12-11 02:41:00,29.6,54.0,30.30,SSW,202,0.0,1.0,255,0.00,,,0.00,Rainwise IP-100,2017-12-11 10:41:00,
2017-12-11 02:46:00,29.2,53.0,30.30,West,270,0.0,3.0,255,0.00,,,0.00,Rainwise IP-100,2017-12-11 10:46:00,
2017-12-11 02:51:00,29.3,53.0,30.30,West,270,1.9,3.0,255,0.00,,,0.00,Rainwise IP-100,2017-12-11 10:51:00,
2017-12-11 02:56:00,29.3,53.0,30.30,ESE,112,0.0,3.0,255,0.00,,,0.00,Rainwise IP-100,2017-12-11 10:56:00,
2017-12-11 03:01:00,28.7,53.0,30.29,SW,225,0.0,1.0,255,0.00,,,0.00,Rainwise IP-100,2017-12-11 11:01:00,
2017-12-11 03:06:00,28.2,51.0,30.29,SW,225,0.0,2.0,255,0.00,,,0.00,Rainwise IP-100,2017-12-11 11:06:00,
2017-12-11 03:11:00,28.0,51.0,30.29,SW,225,0.0,0.0,255,0.00,,,0.00,Rainwise IP-100,2017-12-11 11:11:00,
2017-12-11 03:16:00,27.6,51.0,30.29,ESE,112,0.0,2.0,255,0.00,,,0.00,Rainwise IP-100,2017-12-11 11:16:00,
2017-12-11 03:21:00,27.4,51.0,30.29,SSE,157,0.0,2.0,255,0.00,,,0.00,Rainwise IP-100,2017-12-11 11:21:00,
2017-12-11 03:26:00,27.3,51.0,30.29,ESE,112,0.0,2.0,255,0.00,,,0.00,Rainwise IP-100,2017-12-11 11:26:00,
2017-12-11 03:31:00,27.3,51.0,30.28,ESE,112,0.0,1.0,255,0.00,,,0.00,Rainwise IP-100,2017-12-11 11:31:00,
2017-12-11 03:36:00,27.2,51.0,30.29,WNW,292,2.3,2.3,255,0.00,,,0.00,Rainwise IP-100,2017-12-11 11:36:00,
2017-12-11 03:41:00,27.4,51.0,30.28,WNW,292,0.0,3.0,255,0.00,,,0.00,Rainwise IP-100,2017-12-11 11:41:00,
2017-12-11 03:46:00,27.6,51.0,30.28,SSE,157,0.0,2.0,255,0.00,,,0.00,Rainwise IP-100,2017-12-11 11:46:00,
2017-12-11 03:51:00,27.1,51.0,30.28,ESE,112,1.2,2.0,255,0.00,,,0.00,Rainwise IP-100,2017-12-11 11:51:00,
2017-12-11 03:56:00,26.8,51.0,30.28,ESE,112,0.0,1.0,255,0.00,,,0.00,Rainwise IP-100,2017-12-11 11:56:00,
2017-12-11 04:01:00,27.1,51.0,30.28,West,270,0.0,2.0,255,0.00,,,0.00,Rainwise IP-100,2017-12-11 12:01:00,
2017-12-11 04:06:00,27.1,51.0,30.28,West,270,0.0,1.0,255,0.00,,,0.00,Rainwise IP-100,2017-12-11 12:06:00,
2017-12-11 04:11:00,26.7,51.0,30.28,NNW,337,1.6,3.0,255,0.00,,,0.00,Rainwise IP-100,2017-12-11 12:11:00,
2017-12-11 04:16:00,26.3,50.0,30.28,SSW,202,0.0,3.0,255,0.00,,,0.00,Rainwise IP-100,2017-12-11 12:16:00,
2017-12-11 04:21:00,26.5,51.0,30.28,SW,225,0.0,1.0,255,0.00,,,0.00,Rainwise IP-100,2017-12-11 12:21:00,
2017-12-11 04:26:00,27.0,51.0,30.29,WSW,247,0.0,2.0,255,0.00,,,0.00,Rainwise IP-100,2017-12-11 12:26:00,
2017-12-11 04:31:00,27.0,51.0,30.29,WSW,247,0.0,1.0,255,0.00,,,0.00,Rainwise IP-100,2017-12-11 12:31:00,
2017-12-11 04:36:00,27.3,51.0,30.29,WSW,247,0.0,1.0,255,0.00,,,0.00,Rainwise IP-100,2017-12-11 12:36:00,
2017-12-11 04:41:00,27.4,51.0,30.29,SSE,157,1.2,2.0,255,0.00,,,0.00,Rainwise IP-100,2017-12-11 12:41:00,
2017-12-11 04:46:00,26.9,51.0,30.30,SSE,157,0.0,2.0,255,0.00,,,0.00,Rainwise IP-100,2017-12-11 12:46:00,
2017-12-11 04:51:00,27.3,51.0,30.29,West,270,0.0,1.0,255,0.00,,,0.00,Rainwise IP-100,2017-12-11 12:51:00,
2017-12-11 04:56:00,27.5,51.0,30.30,ESE,112,1.6,2.0,255,0.00,,,0.00,Rainwise IP-100,2017-12-11 12:56:00,
2017-12-11 05:01:00,27.4,51.0,30.30,WSW,247,1.4,3.0,255,0.00,,,0.00,Rainwise IP-100,2017-12-11 13:01:00,
2017-12-11 05:06:00,27.9,51.0,30.30,WSW,247,0.0,1.0,255,0.00,,,0.00,Rainwise IP-100,2017-12-11 13:06:00,
2017-12-11 05:11:00,27.8,51.0,30.31,WSW,247,0.0,0.0,255,0.00,,,0.00,Rainwise IP-100,2017-12-11 13:11:00,
2017-12-11 05:16:00,27.6,51.0,30.31,ENE,67,0.0,2.0,255,0.00,,,0.00,Rainwise IP-100,2017-12-11 13:16:00,
2017-12-11 05:21:00,27.5,51.0,30.31,South,180,0.0,2.0,255,0.00,,,0.00,Rainwise IP-100,2017-12-11 13:21:00,